Regional Weather Roundup
Issued by NWS Charleston, WV

Home | Current Version | Previous Version | Graphics & Text | Print | Product List | Glossary On
Versions: 1 2 3 4 5 6 7 8 9 10 11 12 13 14 15 16 17 18 19 20 21 22 23 24 25 26 27 28 29 30 31 32 33 34 35 36 37 38 39 40 41 42 43 44 45 46 47 48 49 50
000
ASUS41 KRLX 011010
RWRRLX
West Virginia Regional Weather Roundup
National Weather Service Charleston WV
600 AM EDT WED JUL 01 2015

Note: "fair" indicates few or no clouds below 12,000 feet with no
significant weather and/or obstructions to visibility.

WVZ003-011100-
Northern Panhandle of West Virginia

CITY           SKY/WX    TMP DP  RH WIND       PRES   REMARKS
WHEELING       CLOUDY    61  59  93 SW7       29.87R FOG
$$

WVZ009-011100-
Northwest West Virginia

CITY           SKY/WX    TMP DP  RH WIND       PRES   REMARKS
PARKERSBURG    NOT AVBL
$$

WVZ006-011100-
Western West Virginia

CITY           SKY/WX    TMP DP  RH WIND       PRES   REMARKS
HUNTINGTON     PTCLDY    60  59  96 CALM      29.90S
$$

WVZ015-011100-
West Central West Virginia

CITY           SKY/WX    TMP DP  RH WIND       PRES   REMARKS
CHARLESTON     PTCLDY    58  57  97 CALM      29.92R FOG
$$

WVZ022-031-011100-
North Central West Virginia

CITY           SKY/WX    TMP DP  RH WIND       PRES   REMARKS
CLARKSBURG     CLOUDY    62  59  90 S6        29.91R
MORGANTOWN     CLOUDY    62  57  83 S8        29.90S
$$

WVZ025-035-042-045-011100-
Southern West Virginia

CITY           SKY/WX    TMP DP  RH WIND       PRES   REMARKS
BECKLEY        CLEAR     57  54  89 SW7       29.99S
LOGAN          MOCLDY    61  59  94 CALM      29.92S
BLUEFIELD      CLEAR     60  54  80 W6        30.01R
LEWISBURG        N/A     58  56  94 CALM      29.98S FOG
$$

WVZ047-011100-
Northern Mountains of West Virginia

CITY           SKY/WX    TMP DP  RH WIND       PRES   REMARKS
ELKINS         CLOUDY    60  55  83 SW3       29.95R
$$

WVZ052-011100-
Eastern Panhandle of West Virginia

CITY           SKY/WX    TMP DP  RH WIND       PRES   REMARKS
MARTINSBURG    MOCLDY    63  61  93 CALM      29.86R
PETERSBURG     PTCLDY    61  57  88 CALM      29.90R
$$


USA.gov is the U.S. government's official web portal to all federal, state and local government web resources and services.